owner,sensor,date,latitude,longitude,vertical_datum,sea_water_practical_salinity,qcFlag 
TABS,ioos:station:wmo:42044:1,2017-01-05T00:00:00Z,26.1914,-97.0507,2.0,0.01,11111222 
TABS,ioos:station:wmo:42044:1,2017-01-05T00:30:00Z,26.1914,-97.0507,2.0,0.01,11111222 
TABS,ioos:station:wmo:42044:1,2017-01-05T01:00:00Z,26.1914,-97.0507,2.0,0.01,11111222 
TABS,ioos:station:wmo:42044:1,2017-01-05T01:30:00Z,26.1914,-97.0507,2.0,0.01,11111222 
TABS,ioos:station:wmo:42044:1,2017-01-05T02:00:00Z,26.1914,-97.0507,2.0,0.01,11111222 
TABS,ioos:station:wmo:42044:1,2017-01-05T02:30:00Z,26.1914,-97.0507,2.0,0.01,11111222 
TABS,ioos:station:wmo:42044:1,2017-01-05T03:00:00Z,26.1914,-97.0507,2.0,0.01,11111222 
TABS,ioos:station:wmo:42044:1,2017-01-05T03:30:00Z,26.1914,-97.0507,2.0,0.01,11111222 
TABS,ioos:station:wmo:42044:1,2017-01-05T04:00:00Z,26.1914,-97.0507,2.0,0.01,11111222 
TABS,ioos:station:wmo:42044:1,2017-01-05T04:30:00Z,26.1914,-97.0507,2.0,0.01,11111222 
TABS,ioos:station:wmo:42044:1,2017-01-05T05:00:00Z,26.1914,-97.0507,2.0,30.25,11111222 
TABS,ioos:station:wmo:42044:1,2017-01-05T05:30:00Z,26.1914,-97.0507,2.0,31.11,11111222 
TABS,ioos:station:wmo:42044:1,2017-01-05T06:00:00Z,26.1914,-97.0507,2.0,31.23,11111222 
TABS,ioos:station:wmo:42044:1,2017-01-05T06:30:00Z,26.1914,-97.0507,2.0,31.29,11111222 
TABS,ioos:station:wmo:42044:1,2017-01-05T07:00:00Z,26.1914,-97.0507,2.0,31.34,11111222 
TABS,ioos:station:wmo:42044:1,2017-01-05T07:30:00Z,26.1914,-97.0507,2.0,31.38,11111222 
TABS,ioos:station:wmo:42044:1,2017-01-05T08:00:00Z,26.1914,-97.0507,2.0,31.35,11111222 
TABS,ioos:station:wmo:42044:1,2017-01-05T08:30:00Z,26.1914,-97.0507,2.0,31.31,11111222 
TABS,ioos:station:wmo:42044:1,2017-01-05T09:00:00Z,26.1914,-97.0507,2.0,31.3,11111222 
TABS,ioos:station:wmo:42044:1,2017-01-05T09:30:00Z,26.1914,-97.0507,2.0,31.31,11111222 
TABS,ioos:station:wmo:42044:1,2017-01-05T10:00:00Z,26.1914,-97.0507,2.0,31.31,11111222 
TABS,ioos:station:wmo:42044:1,2017-01-05T10:30:00Z,26.1914,-97.0507,2.0,31.31,11111222 
TABS,ioos:station:wmo:42044:1,2017-01-05T11:00:00Z,26.1914,-97.0507,2.0,31.29,11111222 
TABS,ioos:station:wmo:42044:1,2017-01-05T11:30:00Z,26.1914,-97.0507,2.0,31.23,11111222 
TABS,ioos:station:wmo:42044:1,2017-01-05T12:00:00Z,26.1914,-97.0507,2.0,31.23,11111222 
TABS,ioos:station:wmo:42044:1,2017-01-05T12:30:00Z,26.1914,-97.0507,2.0,31.22,11111222 
TABS,ioos:station:wmo:42044:1,2017-01-05T13:00:00Z,26.1914,-97.0507,2.0,31.22,11111222 
TABS,ioos:station:wmo:42044:1,2017-01-05T13:30:00Z,26.1914,-97.0507,2.0,31.24,11111222 
TABS,ioos:station:wmo:42044:1,2017-01-05T14:00:00Z,26.1914,-97.0507,2.0,31.24,11111222 
TABS,ioos:station:wmo:42044:1,2017-01-05T14:30:00Z,26.1914,-97.0507,2.0,31.22,11111222 
TABS,ioos:station:wmo:42044:1,2017-01-05T15:00:00Z,26.1914,-97.0507,2.0,31.2,11111222 
TABS,ioos:station:wmo:42044:1,2017-01-05T15:30:00Z,26.1914,-97.0507,2.0,31.21,11111222 
TABS,ioos:station:wmo:42044:1,2017-01-05T16:00:00Z,26.1914,-97.0507,2.0,31.19,11111222 
TABS,ioos:station:wmo:42044:1,2017-01-05T16:30:00Z,26.1914,-97.0507,2.0,31.2,11111222 
TABS,ioos:station:wmo:42044:1,2017-01-05T17:00:00Z,26.1914,-97.0507,2.0,31.18,11111222 
TABS,ioos:station:wmo:42044:1,2017-01-05T17:30:00Z,26.1914,-97.0507,2.0,31.17,11111222 
TABS,ioos:station:wmo:42044:1,2017-01-05T18:00:00Z,26.1914,-97.0507,2.0,31.2,11111222 
TABS,ioos:station:wmo:42044:1,2017-01-05T18:30:00Z,26.1914,-97.0507,2.0,31.21,11111222 
TABS,ioos:station:wmo:42044:1,2017-01-05T19:00:00Z,26.1914,-97.0507,2.0,31.2,11111222 
TABS,ioos:station:wmo:42044:1,2017-01-05T19:30:00Z,26.1914,-97.0507,2.0,31.17,11111222 
TABS,ioos:station:wmo:42044:1,2017-01-05T20:00:00Z,26.1914,-97.0507,2.0,31.13,11111222 
TABS,ioos:station:wmo:42044:1,2017-01-05T20:30:00Z,26.1914,-97.0507,2.0,31.11,11111222 
TABS,ioos:station:wmo:42044:1,2017-01-05T21:00:00Z,26.1914,-97.0507,2.0,31.1,11111222 
TABS,ioos:station:wmo:42044:1,2017-01-05T21:30:00Z,26.1914,-97.0507,2.0,31.1,11111222 
TABS,ioos:station:wmo:42044:1,2017-01-05T22:00:00Z,26.1914,-97.0507,2.0,31.11,11111222 
TABS,ioos:station:wmo:42044:1,2017-01-05T22:30:00Z,26.1914,-97.0507,2.0,31.11,11111222 
TABS,ioos:station:wmo:42044:1,2017-01-05T23:00:00Z,26.1914,-97.0507,2.0,31.18,11111222 
TABS,ioos:station:wmo:42044:1,2017-01-05T23:30:00Z,26.1914,-97.0507,2.0,31.08,11111222 
TABS,ioos:station:wmo:42044:1,2017-01-06T00:00:00Z,26.1914,-97.0507,2.0,31.13,11111222 
TABS,ioos:station:wmo:42044:1,2017-01-06T00:30:00Z,26.1914,-97.0507,2.0,31.14,11111222 
TABS,ioos:station:wmo:42044:1,2017-01-06T01:00:00Z,26.1914,-97.0507,2.0,31.14,11111222 
TABS,ioos:station:wmo:42044:1,2017-01-06T01:30:00Z,26.1914,-97.0507,2.0,31.15,11111222 
TABS,ioos:station:wmo:42044:1,2017-01-06T02:00:00Z,26.1914,-97.0507,2.0,31.15,11111222 
TABS,ioos:station:wmo:42044:1,2017-01-06T02:30:00Z,26.1914,-97.0507,2.0,31.16,11111222 
TABS,ioos:station:wmo:42044:1,2017-01-06T03:00:00Z,26.1914,-97.0507,2.0,31.18,11111222 
TABS,ioos:station:wmo:42044:1,2017-01-06T03:30:00Z,26.1914,-97.0507,2.0,31.19,11111222 
TABS,ioos:station:wmo:42044:1,2017-01-06T04:00:00Z,26.1914,-97.0507,2.0,31.2,11111222 
TABS,ioos:station:wmo:42044:1,2017-01-06T04:30:00Z,26.1914,-97.0507,2.0,31.19,11111222 
TABS,ioos:station:wmo:42044:1,2017-01-06T05:00:00Z,26.1914,-97.0507,2.0,31.19,11111222 
TABS,ioos:station:wmo:42044:1,2017-01-06T05:30:00Z,26.1914,-97.0507,2.0,31.18,11111222 
TABS,ioos:station:wmo:42044:1,2017-01-06T06:00:00Z,26.1914,-97.0507,2.0,31.18,11111222 
TABS,ioos:station:wmo:42044:1,2017-01-06T06:30:00Z,26.1914,-97.0507,2.0,31.17,11111222 
TABS,ioos:station:wmo:42044:1,2017-01-06T07:00:00Z,26.1914,-97.0507,2.0,31.17,11111222 
TABS,ioos:station:wmo:42044:1,2017-01-06T07:30:00Z,26.1914,-97.0507,2.0,31.18,11111222 
TABS,ioos:station:wmo:42044:1,2017-01-06T08:00:00Z,26.1914,-97.0507,2.0,31.18,11111222 
TABS,ioos:station:wmo:42044:1,2017-01-06T08:30:00Z,26.1914,-97.0507,2.0,31.21,11111222 
TABS,ioos:station:wmo:42044:1,2017-01-06T09:00:00Z,26.1914,-97.0507,2.0,31.23,11111222 
TABS,ioos:station:wmo:42044:1,2017-01-06T09:30:00Z,26.1914,-97.0507,2.0,31.23,11111222 
TABS,ioos:station:wmo:42044:1,2017-01-06T10:00:00Z,26.1914,-97.0507,2.0,31.22,11111222 
TABS,ioos:station:wmo:42044:1,2017-01-06T10:30:00Z,26.1914,-97.0507,2.0,31.21,11111222 
TABS,ioos:station:wmo:42044:1,2017-01-06T11:00:00Z,26.1914,-97.0507,2.0,31.2,11111222 
TABS,ioos:station:wmo:42044:1,2017-01-06T11:30:00Z,26.1914,-97.0507,2.0,31.17,11111222 
TABS,ioos:station:wmo:42044:1,2017-01-06T12:00:00Z,26.1914,-97.0507,2.0,31.15,11111222 
TABS,ioos:station:wmo:42044:1,2017-01-06T12:30:00Z,26.1914,-97.0507,2.0,31.19,11111222 
TABS,ioos:station:wmo:42044:1,2017-01-06T13:00:00Z,26.1914,-97.0507,2.0,31.23,11111222 
TABS,ioos:station:wmo:42044:1,2017-01-06T13:30:00Z,26.1914,-97.0507,2.0,31.26,11111222 
TABS,ioos:station:wmo:42044:1,2017-01-06T14:00:00Z,26.1914,-97.0507,2.0,31.22,11111222 
TABS,ioos:station:wmo:42044:1,2017-01-06T14:30:00Z,26.1914,-97.0507,2.0,31.22,11111222 
TABS,ioos:station:wmo:42044:1,2017-01-06T15:00:00Z,26.1914,-97.0507,2.0,31.26,11111222 
TABS,ioos:station:wmo:42044:1,2017-01-06T15:30:00Z,26.1914,-97.0507,2.0,31.28,11111222 
TABS,ioos:station:wmo:42044:1,2017-01-06T16:00:00Z,26.1914,-97.0507,2.0,31.28,11111222 
TABS,ioos:station:wmo:42044:1,2017-01-06T16:30:00Z,26.1914,-97.0507,2.0,31.28,11111222 
TABS,ioos:station:wmo:42044:1,2017-01-06T17:00:00Z,26.1914,-97.0507,2.0,31.28,11111222 
TABS,ioos:station:wmo:42044:1,2017-01-06T17:30:00Z,26.1914,-97.0507,2.0,31.27,11111222 
TABS,ioos:station:wmo:42044:1,2017-01-06T18:00:00Z,26.1914,-97.0507,2.0,31.36,11111222 
TABS,ioos:station:wmo:42044:1,2017-01-06T18:30:00Z,26.1914,-97.0507,2.0,31.53,11111222 
TABS,ioos:station:wmo:42044:1,2017-01-06T19:00:00Z,26.1914,-97.0507,2.0,31.66,11111222 
TABS,ioos:station:wmo:42044:1,2017-01-06T19:30:00Z,26.1914,-97.0507,2.0,31.58,11111222 
TABS,ioos:station:wmo:42044:1,2017-01-06T20:00:00Z,26.1914,-97.0507,2.0,31.93,11111222 
TABS,ioos:station:wmo:42044:1,2017-01-06T20:30:00Z,26.1914,-97.0507,2.0,32.52,11111222 
TABS,ioos:station:wmo:42044:1,2017-01-06T21:00:00Z,26.1914,-97.0507,2.0,32.86,11111222 
TABS,ioos:station:wmo:42044:1,2017-01-06T21:30:00Z,26.1914,-97.0507,2.0,33.45,11111222 
TABS,ioos:station:wmo:42044:1,2017-01-06T22:00:00Z,26.1914,-97.0507,2.0,33.4,11111222 
TABS,ioos:station:wmo:42044:1,2017-01-06T22:30:00Z,26.1914,-97.0507,2.0,33.39,11111222 
TABS,ioos:station:wmo:42044:1,2017-01-06T23:00:00Z,26.1914,-97.0507,2.0,33.42,11111222 
TABS,ioos:station:wmo:42044:1,2017-01-06T23:30:00Z,26.1914,-97.0507,2.0,33.45,11111222 
TABS,ioos:station:wmo:42044:1,2017-01-07T00:00:00Z,26.1914,-97.0507,2.0,33.4,11111222 
TABS,ioos:station:wmo:42044:1,2017-01-07T00:30:00Z,26.1914,-97.0507,2.0,33.34,11111222 
TABS,ioos:station:wmo:42044:1,2017-01-07T01:00:00Z,26.1914,-97.0507,2.0,33.4,11111222 
TABS,ioos:station:wmo:42044:1,2017-01-07T01:30:00Z,26.1914,-97.0507,2.0,33.5,11111222 
TABS,ioos:station:wmo:42044:1,2017-01-07T02:00:00Z,26.1914,-97.0507,2.0,33.64,11111222 
TABS,ioos:station:wmo:42044:1,2017-01-07T02:30:00Z,26.1914,-97.0507,2.0,33.66,11111222 
TABS,ioos:station:wmo:42044:1,2017-01-07T03:00:00Z,26.1914,-97.0507,2.0,33.6,11111222 
TABS,ioos:station:wmo:42044:1,2017-01-07T03:30:00Z,26.1914,-97.0507,2.0,33.57,11111222 
TABS,ioos:station:wmo:42044:1,2017-01-07T04:00:00Z,26.1914,-97.0507,2.0,33.47,11111222 
TABS,ioos:station:wmo:42044:1,2017-01-07T04:30:00Z,26.1914,-97.0507,2.0,33.45,11111222 
TABS,ioos:station:wmo:42044:1,2017-01-07T05:00:00Z,26.1914,-97.0507,2.0,33.41,11111222 
TABS,ioos:station:wmo:42044:1,2017-01-07T05:30:00Z,26.1914,-97.0507,2.0,33.34,11111222 
TABS,ioos:station:wmo:42044:1,2017-01-07T06:00:00Z,26.1914,-97.0507,2.0,33.3,11111222 
TABS,ioos:station:wmo:42044:1,2017-01-07T06:30:00Z,26.1914,-97.0507,2.0,33.22,11111222 
TABS,ioos:station:wmo:42044:1,2017-01-07T07:00:00Z,26.1914,-97.0507,2.0,33.14,11111222 
TABS,ioos:station:wmo:42044:1,2017-01-07T07:30:00Z,26.1914,-97.0507,2.0,33.07,11111222 
TABS,ioos:station:wmo:42044:1,2017-01-07T08:00:00Z,26.1914,-97.0507,2.0,33.0,11111222 
TABS,ioos:station:wmo:42044:1,2017-01-07T08:30:00Z,26.1914,-97.0507,2.0,32.93,11111222 
TABS,ioos:station:wmo:42044:1,2017-01-07T09:00:00Z,26.1914,-97.0507,2.0,32.9,11111222 
TABS,ioos:station:wmo:42044:1,2017-01-07T09:30:00Z,26.1914,-97.0507,2.0,32.85,11111222 
TABS,ioos:station:wmo:42044:1,2017-01-07T10:00:00Z,26.1914,-97.0507,2.0,32.79,11111222 
TABS,ioos:station:wmo:42044:1,2017-01-07T10:30:00Z,26.1914,-97.0507,2.0,32.75,11111222 
TABS,ioos:station:wmo:42044:1,2017-01-07T11:00:00Z,26.1914,-97.0507,2.0,32.68,11111222 
TABS,ioos:station:wmo:42044:1,2017-01-07T11:30:00Z,26.1914,-97.0507,2.0,32.59,11111222 
TABS,ioos:station:wmo:42044:1,2017-01-07T12:00:00Z,26.1914,-97.0507,2.0,32.51,11111222 
TABS,ioos:station:wmo:42044:1,2017-01-07T12:30:00Z,26.1914,-97.0507,2.0,32.45,11111222 
TABS,ioos:station:wmo:42044:1,2017-01-07T13:00:00Z,26.1914,-97.0507,2.0,32.43,11111222 
TABS,ioos:station:wmo:42044:1,2017-01-07T13:30:00Z,26.1914,-97.0507,2.0,32.59,11111222 
TABS,ioos:station:wmo:42044:1,2017-01-07T14:00:00Z,26.1914,-97.0507,2.0,32.7,11111222 
TABS,ioos:station:wmo:42044:1,2017-01-07T14:30:00Z,26.1914,-97.0507,2.0,32.76,11111222 
TABS,ioos:station:wmo:42044:1,2017-01-07T15:00:00Z,26.1914,-97.0507,2.0,32.75,11111222 
TABS,ioos:station:wmo:42044:1,2017-01-07T15:30:00Z,26.1914,-97.0507,2.0,32.69,11111222 
TABS,ioos:station:wmo:42044:1,2017-01-07T16:00:00Z,26.1914,-97.0507,2.0,32.64,11111222 
TABS,ioos:station:wmo:42044:1,2017-01-07T16:30:00Z,26.1914,-97.0507,2.0,32.59,11111222 
TABS,ioos:station:wmo:42044:1,2017-01-07T17:00:00Z,26.1914,-97.0507,2.0,32.52,11111222 
TABS,ioos:station:wmo:42044:1,2017-01-07T17:30:00Z,26.1914,-97.0507,2.0,32.45,11111222 
TABS,ioos:station:wmo:42044:1,2017-01-07T18:00:00Z,26.1914,-97.0507,2.0,32.38,11111222 
TABS,ioos:station:wmo:42044:1,2017-01-07T18:30:00Z,26.1914,-97.0507,2.0,32.32,11111222 
TABS,ioos:station:wmo:42044:1,2017-01-07T19:00:00Z,26.1914,-97.0507,2.0,32.24,11111222 
TABS,ioos:station:wmo:42044:1,2017-01-07T19:30:00Z,26.1914,-97.0507,2.0,32.18,11111222 
TABS,ioos:station:wmo:42044:1,2017-01-07T20:00:00Z,26.1914,-97.0507,2.0,32.14,11111222 
TABS,ioos:station:wmo:42044:1,2017-01-07T20:30:00Z,26.1914,-97.0507,2.0,32.06,11111222 
TABS,ioos:station:wmo:42044:1,2017-01-07T21:00:00Z,26.1914,-97.0507,2.0,31.94,11111222 
TABS,ioos:station:wmo:42044:1,2017-01-07T21:30:00Z,26.1914,-97.0507,2.0,31.93,11111222 
TABS,ioos:station:wmo:42044:1,2017-01-07T22:00:00Z,26.1914,-97.0507,2.0,31.85,11111222 
TABS,ioos:station:wmo:42044:1,2017-01-07T22:30:00Z,26.1914,-97.0507,2.0,31.86,11111222 
TABS,ioos:station:wmo:42044:1,2017-01-07T23:00:00Z,26.1914,-97.0507,2.0,31.85,11111222 
TABS,ioos:station:wmo:42044:1,2017-01-07T23:30:00Z,26.1914,-97.0507,2.0,31.87,11111222 
TABS,ioos:station:wmo:42044:1,2017-01-08T00:00:00Z,26.1914,-97.0507,2.0,32.2,11111222 
TABS,ioos:station:wmo:42044:1,2017-01-08T00:30:00Z,26.1914,-97.0507,2.0,32.36,11111222 
TABS,ioos:station:wmo:42044:1,2017-01-08T01:00:00Z,26.1914,-97.0507,2.0,32.39,11111222 
TABS,ioos:station:wmo:42044:1,2017-01-08T01:30:00Z,26.1914,-97.0507,2.0,32.39,11111222 
TABS,ioos:station:wmo:42044:1,2017-01-08T02:00:00Z,26.1914,-97.0507,2.0,32.43,11111222 
TABS,ioos:station:wmo:42044:1,2017-01-08T02:30:00Z,26.1914,-97.0507,2.0,32.39,11111222 
TABS,ioos:station:wmo:42044:1,2017-01-08T03:00:00Z,26.1914,-97.0507,2.0,32.33,11111222 
TABS,ioos:station:wmo:42044:1,2017-01-08T03:30:00Z,26.1914,-97.0507,2.0,32.33,11111222 
TABS,ioos:station:wmo:42044:1,2017-01-08T04:00:00Z,26.1914,-97.0507,2.0,32.34,11111222 
TABS,ioos:station:wmo:42044:1,2017-01-08T04:30:00Z,26.1914,-97.0507,2.0,32.35,11111222 
TABS,ioos:station:wmo:42044:1,2017-01-08T05:00:00Z,26.1914,-97.0507,2.0,32.19,11111222 
TABS,ioos:station:wmo:42044:1,2017-01-08T05:30:00Z,26.1914,-97.0507,2.0,32.02,11111222 
TABS,ioos:station:wmo:42044:1,2017-01-08T06:00:00Z,26.1914,-97.0507,2.0,32.02,11111222 
TABS,ioos:station:wmo:42044:1,2017-01-08T06:30:00Z,26.1914,-97.0507,2.0,31.97,11111222 
TABS,ioos:station:wmo:42044:1,2017-01-08T07:00:00Z,26.1914,-97.0507,2.0,32.03,11111222 
TABS,ioos:station:wmo:42044:1,2017-01-08T07:30:00Z,26.1914,-97.0507,2.0,31.95,11111222 
TABS,ioos:station:wmo:42044:1,2017-01-08T08:00:00Z,26.1914,-97.0507,2.0,32.02,11111222 
TABS,ioos:station:wmo:42044:1,2017-01-08T08:30:00Z,26.1914,-97.0507,2.0,31.92,11111222 
TABS,ioos:station:wmo:42044:1,2017-01-08T09:00:00Z,26.1914,-97.0507,2.0,31.88,11111222 
TABS,ioos:station:wmo:42044:1,2017-01-08T09:30:00Z,26.1914,-97.0507,2.0,31.91,11111222 
TABS,ioos:station:wmo:42044:1,2017-01-08T10:00:00Z,26.1914,-97.0507,2.0,31.93,11111222 
TABS,ioos:station:wmo:42044:1,2017-01-08T10:30:00Z,26.1914,-97.0507,2.0,31.79,11111222 
TABS,ioos:station:wmo:42044:1,2017-01-08T11:00:00Z,26.1914,-97.0507,2.0,31.81,11111222 
TABS,ioos:station:wmo:42044:1,2017-01-08T11:30:00Z,26.1914,-97.0507,2.0,31.81,11111222 
TABS,ioos:station:wmo:42044:1,2017-01-08T12:00:00Z,26.1914,-97.0507,2.0,31.78,11111222 
TABS,ioos:station:wmo:42044:1,2017-01-08T12:30:00Z,26.1914,-97.0507,2.0,31.77,11111222 
TABS,ioos:station:wmo:42044:1,2017-01-08T13:00:00Z,26.1914,-97.0507,2.0,31.76,11111222 
TABS,ioos:station:wmo:42044:1,2017-01-08T13:30:00Z,26.1914,-97.0507,2.0,31.78,11111222 
TABS,ioos:station:wmo:42044:1,2017-01-08T14:00:00Z,26.1914,-97.0507,2.0,31.74,11111222 
TABS,ioos:station:wmo:42044:1,2017-01-08T14:30:00Z,26.1914,-97.0507,2.0,31.81,11111222 
TABS,ioos:station:wmo:42044:1,2017-01-08T15:00:00Z,26.1914,-97.0507,2.0,31.76,11111222 
TABS,ioos:station:wmo:42044:1,2017-01-08T15:30:00Z,26.1914,-97.0507,2.0,31.8,11111222 
TABS,ioos:station:wmo:42044:1,2017-01-08T16:00:00Z,26.1914,-97.0507,2.0,31.82,11111222 
TABS,ioos:station:wmo:42044:1,2017-01-08T16:30:00Z,26.1914,-97.0507,2.0,31.88,11111222 
TABS,ioos:station:wmo:42044:1,2017-01-08T17:00:00Z,26.1914,-97.0507,2.0,31.82,11111222 
TABS,ioos:station:wmo:42044:1,2017-01-08T17:30:00Z,26.1914,-97.0507,2.0,31.8,11111222 
TABS,ioos:station:wmo:42044:1,2017-01-08T18:00:00Z,26.1914,-97.0507,2.0,31.81,11111222 
TABS,ioos:station:wmo:42044:1,2017-01-08T18:30:00Z,26.1914,-97.0507,2.0,32.01,11111222 
TABS,ioos:station:wmo:42044:1,2017-01-08T19:00:00Z,26.1914,-97.0507,2.0,32.18,11111222 
TABS,ioos:station:wmo:42044:1,2017-01-08T19:30:00Z,26.1914,-97.0507,2.0,32.23,11111222 
TABS,ioos:station:wmo:42044:1,2017-01-08T20:00:00Z,26.1914,-97.0507,2.0,32.02,11111222 
TABS,ioos:station:wmo:42044:1,2017-01-08T20:30:00Z,26.1914,-97.0507,2.0,32.86,11111222 
TABS,ioos:station:wmo:42044:1,2017-01-08T21:00:00Z,26.1914,-97.0507,2.0,32.95,11111222 
TABS,ioos:station:wmo:42044:1,2017-01-08T21:30:00Z,26.1914,-97.0507,2.0,32.91,11111222 
TABS,ioos:station:wmo:42044:1,2017-01-08T22:00:00Z,26.1914,-97.0507,2.0,32.88,11111222 
TABS,ioos:station:wmo:42044:1,2017-01-08T22:30:00Z,26.1914,-97.0507,2.0,32.9,11111222 
TABS,ioos:station:wmo:42044:1,2017-01-08T23:00:00Z,26.1914,-97.0507,2.0,32.83,11111222 
TABS,ioos:station:wmo:42044:1,2017-01-08T23:30:00Z,26.1914,-97.0507,2.0,32.7,11111222 
TABS,ioos:station:wmo:42044:1,2017-01-09T00:00:00Z,26.1914,-97.0507,2.0,32.66,11111222 
TABS,ioos:station:wmo:42044:1,2017-01-09T00:30:00Z,26.1914,-97.0507,2.0,32.51,11111222 
TABS,ioos:station:wmo:42044:1,2017-01-09T01:00:00Z,26.1914,-97.0507,2.0,32.43,11111222 
TABS,ioos:station:wmo:42044:1,2017-01-09T01:30:00Z,26.1914,-97.0507,2.0,32.45,11111222 
TABS,ioos:station:wmo:42044:1,2017-01-09T02:00:00Z,26.1914,-97.0507,2.0,32.45,11111222 
TABS,ioos:station:wmo:42044:1,2017-01-09T02:30:00Z,26.1914,-97.0507,2.0,32.3,11111222 
TABS,ioos:station:wmo:42044:1,2017-01-09T03:00:00Z,26.1914,-97.0507,2.0,32.17,11111222 
TABS,ioos:station:wmo:42044:1,2017-01-09T03:30:00Z,26.1914,-97.0507,2.0,32.14,11111222 
TABS,ioos:station:wmo:42044:1,2017-01-09T04:00:00Z,26.1914,-97.0507,2.0,32.01,11111222 
TABS,ioos:station:wmo:42044:1,2017-01-09T04:30:00Z,26.1914,-97.0507,2.0,31.87,11111222 
TABS,ioos:station:wmo:42044:1,2017-01-09T05:00:00Z,26.1914,-97.0507,2.0,31.81,11111222 
TABS,ioos:station:wmo:42044:1,2017-01-09T05:30:00Z,26.1914,-97.0507,2.0,31.76,11111222 
TABS,ioos:station:wmo:42044:1,2017-01-09T06:00:00Z,26.1914,-97.0507,2.0,31.76,11111222 
TABS,ioos:station:wmo:42044:1,2017-01-09T06:30:00Z,26.1914,-97.0507,2.0,31.71,11111222 
TABS,ioos:station:wmo:42044:1,2017-01-09T07:00:00Z,26.1914,-97.0507,2.0,31.7,11111222 
TABS,ioos:station:wmo:42044:1,2017-01-09T07:30:00Z,26.1914,-97.0507,2.0,31.69,11111222 
TABS,ioos:station:wmo:42044:1,2017-01-09T08:00:00Z,26.1914,-97.0507,2.0,31.59,11111222 
TABS,ioos:station:wmo:42044:1,2017-01-09T08:30:00Z,26.1914,-97.0507,2.0,31.51,11111222 
TABS,ioos:station:wmo:42044:1,2017-01-09T09:00:00Z,26.1914,-97.0507,2.0,31.46,11111222 
TABS,ioos:station:wmo:42044:1,2017-01-09T09:30:00Z,26.1914,-97.0507,2.0,31.41,11111222 
TABS,ioos:station:wmo:42044:1,2017-01-09T10:00:00Z,26.1914,-97.0507,2.0,31.37,11111222 
TABS,ioos:station:wmo:42044:1,2017-01-09T10:30:00Z,26.1914,-97.0507,2.0,31.35,11111222 
TABS,ioos:station:wmo:42044:1,2017-01-09T11:00:00Z,26.1914,-97.0507,2.0,31.29,11111222 
TABS,ioos:station:wmo:42044:1,2017-01-09T11:30:00Z,26.1914,-97.0507,2.0,31.28,11111222 
TABS,ioos:station:wmo:42044:1,2017-01-09T12:00:00Z,26.1914,-97.0507,2.0,31.24,11111222 
TABS,ioos:station:wmo:42044:1,2017-01-09T12:30:00Z,26.1914,-97.0507,2.0,31.2,11111222 
TABS,ioos:station:wmo:42044:1,2017-01-09T13:00:00Z,26.1914,-97.0507,2.0,31.2,11111222 
TABS,ioos:station:wmo:42044:1,2017-01-09T13:30:00Z,26.1914,-97.0507,2.0,31.24,11111222 
TABS,ioos:station:wmo:42044:1,2017-01-09T14:00:00Z,26.1914,-97.0507,2.0,31.3,11111222 
TABS,ioos:station:wmo:42044:1,2017-01-09T14:30:00Z,26.1914,-97.0507,2.0,31.27,11111222 
TABS,ioos:station:wmo:42044:1,2017-01-09T15:00:00Z,26.1914,-97.0507,2.0,31.27,11111222 
TABS,ioos:station:wmo:42044:1,2017-01-09T15:30:00Z,26.1914,-97.0507,2.0,31.26,11111222 
TABS,ioos:station:wmo:42044:1,2017-01-09T16:00:00Z,26.1914,-97.0507,2.0,31.2,11111222 
TABS,ioos:station:wmo:42044:1,2017-01-09T16:30:00Z,26.1914,-97.0507,2.0,31.27,11111222 
TABS,ioos:station:wmo:42044:1,2017-01-09T17:00:00Z,26.1914,-97.0507,2.0,31.57,11111222 
TABS,ioos:station:wmo:42044:1,2017-01-09T17:30:00Z,26.1914,-97.0507,2.0,31.85,11111222 
TABS,ioos:station:wmo:42044:1,2017-01-09T18:00:00Z,26.1914,-97.0507,2.0,31.76,11111222 
TABS,ioos:station:wmo:42044:1,2017-01-09T18:30:00Z,26.1914,-97.0507,2.0,31.23,11111222 
TABS,ioos:station:wmo:42044:1,2017-01-09T19:00:00Z,26.1914,-97.0507,2.0,31.89,11111222 
TABS,ioos:station:wmo:42044:1,2017-01-09T19:30:00Z,26.1914,-97.0507,2.0,31.93,11111222 
TABS,ioos:station:wmo:42044:1,2017-01-09T20:00:00Z,26.1914,-97.0507,2.0,31.98,11111222 
TABS,ioos:station:wmo:42044:1,2017-01-09T20:30:00Z,26.1914,-97.0507,2.0,31.41,11111222 
TABS,ioos:station:wmo:42044:1,2017-01-09T21:00:00Z,26.1914,-97.0507,2.0,31.13,11111222 
TABS,ioos:station:wmo:42044:1,2017-01-09T21:30:00Z,26.1914,-97.0507,2.0,31.0,11111222 
TABS,ioos:station:wmo:42044:1,2017-01-09T22:00:00Z,26.1914,-97.0507,2.0,30.93,11111222 
TABS,ioos:station:wmo:42044:1,2017-01-09T22:30:00Z,26.1914,-97.0507,2.0,30.77,11111222 
TABS,ioos:station:wmo:42044:1,2017-01-09T23:00:00Z,26.1914,-97.0507,2.0,30.98,11111222 
TABS,ioos:station:wmo:42044:1,2017-01-09T23:30:00Z,26.1914,-97.0507,2.0,30.79,11111222 
TABS,ioos:station:wmo:42044:1,2017-01-10T00:00:00Z,26.1914,-97.0507,2.0,30.73,11111222 
TABS,ioos:station:wmo:42044:1,2017-01-10T00:30:00Z,26.1914,-97.0507,2.0,30.64,11111222 
TABS,ioos:station:wmo:42044:1,2017-01-10T01:00:00Z,26.1914,-97.0507,2.0,30.63,11111222 
TABS,ioos:station:wmo:42044:1,2017-01-10T01:30:00Z,26.1914,-97.0507,2.0,30.6,11111222 
TABS,ioos:station:wmo:42044:1,2017-01-10T02:00:00Z,26.1914,-97.0507,2.0,30.59,11111222 
TABS,ioos:station:wmo:42044:1,2017-01-10T02:30:00Z,26.1914,-97.0507,2.0,30.57,11111222 
TABS,ioos:station:wmo:42044:1,2017-01-10T03:00:00Z,26.1914,-97.0507,2.0,30.58,11111222 
TABS,ioos:station:wmo:42044:1,2017-01-10T03:30:00Z,26.1914,-97.0507,2.0,30.59,11111222 
TABS,ioos:station:wmo:42044:1,2017-01-10T04:00:00Z,26.1914,-97.0507,2.0,30.61,11111222 
TABS,ioos:station:wmo:42044:1,2017-01-10T04:30:00Z,26.1914,-97.0507,2.0,30.62,11111222 
TABS,ioos:station:wmo:42044:1,2017-01-10T05:00:00Z,26.1914,-97.0507,2.0,30.62,11111222 
TABS,ioos:station:wmo:42044:1,2017-01-10T05:30:00Z,26.1914,-97.0507,2.0,30.62,11111222 
TABS,ioos:station:wmo:42044:1,2017-01-10T06:00:00Z,26.1914,-97.0507,2.0,30.64,11111222 
TABS,ioos:station:wmo:42044:1,2017-01-10T06:30:00Z,26.1914,-97.0507,2.0,30.65,11111222 
TABS,ioos:station:wmo:42044:1,2017-01-10T07:00:00Z,26.1914,-97.0507,2.0,30.66,11111222 
TABS,ioos:station:wmo:42044:1,2017-01-10T07:30:00Z,26.1914,-97.0507,2.0,30.67,11111222 
TABS,ioos:station:wmo:42044:1,2017-01-10T08:00:00Z,26.1914,-97.0507,2.0,30.67,11111222 
TABS,ioos:station:wmo:42044:1,2017-01-10T08:30:00Z,26.1914,-97.0507,2.0,30.68,11111222 
TABS,ioos:station:wmo:42044:1,2017-01-10T09:00:00Z,26.1914,-97.0507,2.0,30.7,11111222 
TABS,ioos:station:wmo:42044:1,2017-01-10T09:30:00Z,26.1914,-97.0507,2.0,30.71,11111222 
TABS,ioos:station:wmo:42044:1,2017-01-10T10:00:00Z,26.1914,-97.0507,2.0,30.73,11111222 
TABS,ioos:station:wmo:42044:1,2017-01-10T10:30:00Z,26.1914,-97.0507,2.0,30.73,11111222 
TABS,ioos:station:wmo:42044:1,2017-01-10T11:00:00Z,26.1914,-97.0507,2.0,30.7,11111222 
TABS,ioos:station:wmo:42044:1,2017-01-10T11:30:00Z,26.1914,-97.0507,2.0,30.72,11111222 
TABS,ioos:station:wmo:42044:1,2017-01-10T12:00:00Z,26.1914,-97.0507,2.0,30.68,11111222 
TABS,ioos:station:wmo:42044:1,2017-01-10T12:30:00Z,26.1914,-97.0507,2.0,30.65,11111222 
TABS,ioos:station:wmo:42044:1,2017-01-10T13:00:00Z,26.1914,-97.0507,2.0,30.65,11111222 
TABS,ioos:station:wmo:42044:1,2017-01-10T13:30:00Z,26.1914,-97.0507,2.0,30.67,11111222 
TABS,ioos:station:wmo:42044:1,2017-01-10T14:00:00Z,26.1914,-97.0507,2.0,30.68,11111222 
TABS,ioos:station:wmo:42044:1,2017-01-10T14:30:00Z,26.1914,-97.0507,2.0,30.7,11111222 
TABS,ioos:station:wmo:42044:1,2017-01-10T15:00:00Z,26.1914,-97.0507,2.0,30.7,11111222 
TABS,ioos:station:wmo:42044:1,2017-01-10T15:30:00Z,26.1914,-97.0507,2.0,30.78,11111222 